Zurück zum Katalog

NOAA 16 DEB

AktivSSO
NORAD 41285·DEBRIS·🇺🇸 United States

Gestartet Sep 21, 2000 von Vandenberg Space Force Base

Loading…

Nächste Überflüge (nächste 24 Stunden)

TLE

AktuellSource: Space-Track

Epoche: Sep 14, 2026, 09:59 UTC

1 41285U 00055GM  26257.41657207  .00002018  00000-0  82698-3 0  9991
2 41285  98.6569 323.4747 0050772 109.3461 251.3219 14.27545165554210

Verfolge NOAA 16 DEB in Echtzeit mit AllMySat

Download on the App Store